Regional Weather Roundup
Issued by NWS

Home | Current Version | Previous Version | Text Only | Print | Product List | Glossary Off
Versions: 1 2 3 4 5 6 7 8 9 10 11 12 13 14 15 16 17 18 19 20 21 22 23 24 25 26 27 28 29 30 31 32 33 34 35 36 37 38 39 40 41 42 43 44 45 46 47 48 49 50

000
ASUS43 KBIS 292310
RWRND

NORTH DAKOTA REGIONAL WEATHER ROUNDUP
NATIONAL WEATHER SERVICE BISMARCK ND
600 PM CDT SUN MAY 29 2016

NOTE: "FAIR" INDICATES FEW OR NO CLOUDS BELOW 12,000 FEET WITH NO
SIGNIFICANT WEATHER AND/OR OBSTRUCTIONS TO VISIBILITY.


NDZ001>003-009>011-017-300000-
NORTHWEST NORTH DAKOTA

CITY           SKY/WX    TMP DP  RH WIND       PRES   REMARKS
WILLISTON      SUNNY     78  33  19 W14       29.93F
MINOT          MOSUNNY   78  38  23 W8        29.93F
MINOT AFB      MOSUNNY   74  38  27 W13       29.91F
$$

NDZ018>021-031>035-040>046-300000-
SOUTHWEST NORTH DAKOTA

CITY           SKY/WX    TMP DP  RH WIND       PRES   REMARKS
BISMARCK       MOSUNNY   80  45  28 W6        29.94F
DICKINSON      SUNNY     77  32  19 W10       29.93F
GARRISON         N/A     75  40  28 VRB3G22   29.94F
HETTINGER ARPT PTSUNNY   74  45  35 SE3       29.97F
$$

NDZ004>008-012>016-024-026-027-054-300000-
NORTHEAST NORTH DAKOTA

CITY           SKY/WX    TMP DP  RH WIND       PRES   REMARKS
GRAND FORKS    MOSUNNY   73  49  42 NW8       29.90F
GRND FRKS AFB  SUNNY     76  43  31 NW13G21   29.91F
DEVILS LAKE    MOSUNNY   74  40  29 W16       29.94F
$$

NDZ022-023-025-028>030-036>039-047>053-300000-
SOUTHEAST NORTH DAKOTA

CITY           SKY/WX    TMP DP  RH WIND       PRES   REMARKS
FARGO          SUNNY     79  43  27 NW13      29.92F
JAMESTOWN      MOSUNNY   75  44  33 NW13G21   29.94F
$$





USA.gov is the U.S. government's official web portal to all federal, state and local government web resources and services.